Weather in Bukan

Iran     36°38′15″N   46°01′35″E
temp.,
°C
wind,
m/s
gust,
m/s
humid.,
%
clouds,
%
prec.,
mm/h
press.,
hPa
HPBL,
m
14 may, fri
fri1401:30+13nw226284 0.0 101723
04:30+11nnw22671 0.0 101613
07:30+13nw23710 0.0 1017127
10:30+19n44440 0.0 10161085
13:30+23nne45254 0.0 10132696
16:30+24nnw77255 0.0 10122700
19:30+20nnw57350 0.0 1012381
22:30+16nw334285 0.0 101429
15 may, sat
sat1501:30+13nw225121 0.0 101411
04:30+12nw33532 0.0 101416
07:30+13nw23570 0.0 101677
10:30+19nne34270 0.0 1014948
13:30+24nne56170 0.0 10122327
16:30+24n55170 0.0 10102742
19:30+21nw46340 0.0 1011197
22:30+15nw22420 0.0 101312
16 may, sun
sun1601:30+13wnw11453 0.0 101211
04:30+11ese11450 0.0 101211
07:30+15se11480 0.0 101411
10:30+21se34340 0.0 10131093
13:30+24se22214 0.0 10102879
16:30+26w12185 0.0 10083514
19:30+23nnw342919 0.0 1008100
22:30+16sw01385 0.0 101011
17 may, mon
mon1701:30+15wnw33560 0.0 101123
04:30+13se225955 0.0 101211
07:30+16s22480 0.0 101230
10:30+24sse23200 0.0 1010947
13:30+28sw59138 0.0 10094066
16:30+28wsw7814100 0.0 10083970
19:30+22wsw3427100 0.0 101082
22:30+18nnw013098 0.0 101111
18 may, tue
tue1801:30+17ese233293 0.0 101132
04:30+16s4436100 0.0 101165
07:30+17s344087 0.0 101168
10:30+23se592475 0.1 10082331
13:30+27sw8181896 0.0 10054070
16:30+26sw918190 0.0 10053278
19:30+21sw812210 0.0 1006715
22:30+16sw46280 0.0 100974